FW1480 Weather Reports


Display with metric or nautical units.
time (UTC)temp
F
wind
direction
speed
MPH
gust
MPH
rain 1hr
in
rain 24hr
in
rain mn
in
humidity
%
barometer
mb
20240623104922 70 120 0.0 1.0 0.00 0.72 0.09 99 1012.3
20240623103921 70 130 0.0 0.0 0.00 0.72 0.09 99 1012.3
20240623103421 70 130 0.0 1.0 0.00 0.72 0.09 98 1012.3
20240623102923 70 130 0.0 1.0 0.00 0.72 0.09 98 1012.3
20240623102417 70 207 0.0 1.0 0.00 0.72 0.09 98 1012.2
20240623101909 70 207 0.0 1.0 0.00 0.72 0.09 98 1012.3
20240623101404 70 248 0.0 1.0 0.00 0.72 0.09 98 1012.2
20240623100352 69 257 0.0 1.0 0.00 0.72 0.09 98 1012.2
20240623095846 69 212 0.0 1.0 0.00 0.72 0.09 98 1012.5
20240623095340 69 212 0.0 1.0 0.00 0.72 0.09 98 1012.4
20240623094834 69 145 0.0 2.0 0.00 0.72 0.09 98 1012.6
20240623094328 69 212 0.0 2.0 0.00 0.72 0.09 98 1012.6
20240623093316 69 244 0.0 1.0 0.00 0.72 0.09 98 1012.8
20240623092810 69 138 0.0 1.0 0.00 0.72 0.09 98 1012.9
20240623091758 69 203 0.0 1.0 0.00 0.72 0.09 98 1012.8
20240623090746 69 243 0.0 2.0 0.00 0.72 0.09 98 1013.0
20240623090239 69 176 0.0 1.0 0.00 0.72 0.09 98 1013.0
20240623085734 69 176 0.0 1.0 0.00 0.72 0.09 98 1013.0
20240623084723 69 217 0.0 1.0 0.00 0.72 0.09 98 1013.1
20240623084216 70 218 0.0 0.0 0.00 0.72 0.09 98 1013.1
20240623083709 69 186 0.0 1.0 0.00 0.72 0.09 98 1013.0
20240623083204 69 181 0.0 1.0 0.00 0.72 0.09 98 1013.0
20240623082658 69 139 0.0 1.0 0.00 0.72 0.09 98 1013.1
20240623082152 70 135 0.0 1.0 0.00 0.72 0.09 98 1013.1
20240623081645 70 214 0.0 1.0 0.00 0.72 0.09 98 1013.2
20240623081140 70 246 0.0 1.0 0.00 0.72 0.09 98 1013.3
20240623080634 70 246 0.0 1.0 0.00 0.72 0.09 98 1013.3
20240623080128 70 246 0.0 1.0 0.00 0.72 0.09 98 1013.5
20240623075622 69 231 0.0 1.0 0.00 0.72 0.09 98 1013.4
20240623075116 70 136 0.0 1.0 0.00 0.72 0.09 98 1013.5
20240623074610 70 187 0.0 2.0 0.00 0.72 0.09 98 1013.7
20240623074104 70 234 0.0 2.0 0.00 0.72 0.09 98 1013.8
20240623073558 69 144 0.0 0.0 0.00 0.72 0.09 98 1013.7
20240623073053 69 226 0.0 1.0 0.00 0.72 0.09 98 1014.0
20240623072546 69 225 0.0 1.0 0.00 0.72 0.09 98 1014.0
20240623072040 69 217 0.0 1.0 0.00 0.72 0.09 98 1014.5
20240623071533 69 217 0.0 0.0 0.00 0.72 0.09 98 1014.6
20240623070531 69 217 0.0 0.0 0.00 0.72 0.09 98 1014.8
20240623065534 69 217 0.0 1.0 0.00 0.72 0.09 98 1014.6
20240623065030 69 216 0.0 1.0 0.00 0.72 0.09 98 1014.5
20240623064528 69 219 0.0 1.0 0.00 0.72 0.09 98 1014.4
20240623064028 69 219 0.0 1.0 0.01 0.72 0.09 98 1014.6
20240623063527 69 219 0.0 1.0 0.01 0.72 0.09 98 1014.7
20240623063025 69 229 0.0 1.0 0.01 0.72 0.09 98 1014.8
20240623062022 69 222 0.0 1.0 0.01 0.72 0.09 98 1014.9
20240623060515 69 204 0.0 1.0 0.02 0.72 0.09 98 1015.2
20240623060017 69 224 0.0 1.0 0.02 0.72 0.09 98 1015.2
20240623055516 69 224 0.0 1.0 0.02 0.72 0.09 98 1015.3
20240623055016 69 212 0.0 1.0 0.04 0.72 0.09 98 1015.1
20240623054516 69 262 0.0 1.0 0.06 0.72 0.09 98 1015.1
20240623053512 69 323 0.0 1.0 0.08 0.71 0.08 98 1015.3
20240623052500 69 354 0.0 2.0 0.08 0.71 0.08 98 1015.6
20240623051501 69 38 0.0 2.0 0.07 0.70 0.07 97 1015.7
20240623051001 69 70 0.0 1.0 0.07 0.70 0.07 97 1015.9
20240623050504 69 72 0.0 2.0 0.07 0.70 0.07 97 1016.1
20240623050002 69 72 0.0 2.0 0.07 0.70 0.07 97 1016.5
20240623045503 69 117 0.0 2.0 0.07 0.70 0.07 97 1016.9
20240623045001 69 105 0.0 3.0 0.05 0.68 0.06 97 1016.9
20240623044501 69 89 0.0 3.0 0.03 0.66 0.04 97 1017.1
20240623043501 69 20 0.0 1.0 0.00 0.63 0.00 97 1017.2
20240623043001 69 13 0.0 1.0 0.00 0.63 0.00 97 1016.9
20240623042500 69 41 0.0 1.0 0.00 0.63 0.00 97 1016.4
20240623042002 69 25 0.0 1.0 0.00 0.63 0.00 97 1016.1
20240623041501 69 311 0.0 0.0 0.00 0.63 0.00 97 1016.3
20240623041000 69 256 0.0 0.0 0.00 0.63 0.00 97 1016.0
20240623040500 69 256 0.0 0.0 0.00 0.63 0.00 97 1016.0
20240623040001 69 16 0.0 0.0 0.00 0.63 0.00 97 1015.9
20240623035502 69 30 0.0 0.0 0.00 0.63 0.63 97 1016.0
20240623034449 69 9 0.0 0.0 0.00 0.63 0.63 97 1016.4
20240623033943 69 250 0.0 0.0 0.00 0.63 0.63 97 1016.4
20240623033438 69 250 0.0 0.0 0.00 0.63 0.63 97 1016.4
20240623032932 69 250 0.0 0.0 0.00 0.63 0.63 97 1016.3
20240623032425 69 250 0.0 0.0 0.00 0.63 0.63 97 1016.4
20240623031919 69 250 0.0 0.0 0.00 0.63 0.63 97 1016.7
20240623031413 69 250 0.0 0.0 0.00 0.63 0.63 97 1016.7
20240623030907 69 250 0.0 0.0 0.00 0.63 0.63 97 1016.7
20240623030402 69 250 0.0 0.0 0.00 0.63 0.63 97 1016.5
20240623025855 69 250 0.0 0.0 0.00 0.63 0.63 97 1016.4
20240623025348 68 250 0.0 0.0 0.00 0.63 0.63 97 1016.3
20240623024346 69 250 0.0 0.0 0.00 0.63 0.63 97 1016.4
20240623023845 69 250 0.0 0.0 0.00 0.63 0.63 97 1016.3
20240623023342 69 250 0.0 0.0 0.00 0.63 0.63 97 1016.6
20240623022842 69 250 0.0 0.0 0.00 0.63 0.63 97 1016.8
20240623022341 69 251 0.0 0.0 0.00 0.63 0.63 97 1016.8
20240623021840 69 250 0.0 0.0 0.00 0.63 0.63 97 1016.8
20240623021343 69 250 0.0 0.0 0.00 0.63 0.63 97 1016.8
20240623015338 69 250 0.0 0.0 0.00 0.63 0.63 96 1016.7
20240623014837 69 250 0.0 0.0 0.00 0.63 0.63 96 1016.7
20240623014334 69 250 0.0 0.0 0.00 0.63 0.63 96 1016.8
20240623013832 69 302 0.0 0.0 0.00 0.63 0.63 96 1016.7
20240623012828 69 302 0.0 0.0 0.00 0.63 0.63 96 1016.8
20240623012327 69 302 0.0 0.0 0.00 0.63 0.63 96 1016.8
20240623011828 69 302 0.0 0.0 0.00 0.63 0.63 96 1016.7
20240623011330 69 302 0.0 0.0 0.00 0.63 0.63 96 1016.6
20240623010825 69 303 0.0 1.0 0.00 0.63 0.63 96 1016.6
20240623005812 69 302 0.0 0.0 0.00 0.64 0.63 95 1016.7
20240623004800 70 302 0.0 0.0 0.00 0.64 0.63 95 1016.6
20240623003747 70 302 0.0 1.0 0.01 0.64 0.63 95 1016.3
20240623003241 70 302 0.0 1.0 0.11 0.64 0.63 95 1016.3
20240623002733 70 302 0.0 0.0 0.28 0.64 0.63 95 1016.4
20240623002232 70 302 0.0 1.0 0.40 0.64 0.63 95 1016.1
20240623001731 70 302 1.0 4.0 0.46 0.64 0.63 95 1016.1
20240623001233 70 23 1.0 4.0 0.48 0.64 0.63 94 1016.1
20240623000734 71 37 0.0 1.0 0.49 0.64 0.63 94 1016.5
20240623000234 71 38 0.0 1.0 0.50 0.64 0.63 94 1016.5
20240622235733 71 38 0.0 2.0 0.51 0.64 0.63 93 1016.9
20240622234731 72 38 1.0 6.0 0.51 0.64 0.63 91 1017.2
20240622233733 71 262 2.0 7.0 0.50 0.64 0.62 89 1016.7
20240622233232 71 215 0.0 4.0 0.40 0.54 0.54 92 1016.9
20240622232732 72 157 0.0 1.0 0.23 0.38 0.37 93 1017.4
20240622232232 72 18 0.0 1.0 0.11 0.26 0.25 91 1017.5
20240622231231 73 29 1.0 5.0 0.03 0.22 0.15 90 1017.1
20240622230732 74 55 2.0 5.0 0.02 0.22 0.15 89 1017.4
20240622225733 75 136 0.0 4.0 0.00 0.21 0.12 87 1017.6
20240622225228 75 48 1.0 5.0 0.00 0.21 0.12 86 1017.6
20240622224729 75 263 1.0 7.0 0.00 0.21 0.12 86 1017.4
20240622224228 76 43 0.0 7.0 0.00 0.21 0.12 85 1017.1
20240622223729 77 323 0.0 1.0 0.00 0.21 0.12 85 1016.7
20240622223228 77 23 0.0 1.0 0.00 0.21 0.12 84 1016.5
20240622222728 77 82 0.0 1.0 0.00 0.21 0.12 84 1016.3
20240622222227 78 250 0.0 1.0 0.00 0.21 0.12 83 1016.4
20240622221224 78 219 0.0 1.0 0.00 0.22 0.12 82 1016.1
20240622220725 79 123 0.0 4.0 0.00 0.24 0.12 81 1016.3
20240622220224 79 244 1.0 6.0 0.00 0.28 0.12 80 1016.6
20240622215723 80 161 1.0 8.0 0.00 0.38 0.12 80 1016.6
20240622215223 81 46 1.0 8.0 0.00 0.42 0.12 78 1016.6
20240622214723 82 15 0.0 4.0 0.00 0.42 0.12 78 1016.3
20240622214222 83 40 0.0 1.0 0.00 0.43 0.12 76 1016.1
20240622212718 85 115 0.0 1.0 0.00 0.43 0.12 76 1016.0
20240622212212 85 135 0.0 0.0 0.00 0.43 0.12 81 1015.8
20240622211200 84 135 0.0 0.0 0.00 0.43 0.12 81 1015.4
20240622210654 85 130 0.0 3.0 0.00 0.43 0.12 81 1015.4
20240622210148 85 129 0.0 3.0 0.00 0.43 0.12 80 1015.2
20240622205642 85 212 0.0 1.0 0.00 0.43 0.12 80 1015.2
20240622205136 85 119 0.0 0.0 0.00 0.43 0.12 80 1015.2
20240622204630 85 127 0.0 0.0 0.00 0.43 0.12 80 1015.3
20240622204124 85 125 0.0 3.0 0.00 0.43 0.12 80 1015.3
20240622203618 85 125 0.0 3.0 0.00 0.43 0.12 79 1015.3
20240622202605 85 104 0.0 1.0 0.00 0.43 0.12 83 1015.4
20240622202100 85 143 0.0 1.0 0.00 0.43 0.12 84 1015.4
20240622201554 84 178 0.0 1.0 0.00 0.43 0.12 84 1015.3
20240622201048 84 203 0.0 1.0 0.00 0.43 0.12 87 1015.2
20240622200542 84 114 0.0 1.0 0.00 0.43 0.12 87 1015.3
20240622200036 84 114 0.0 1.0 0.00 0.43 0.12 88 1015.4
20240622195024 83 44 0.0 1.0 0.07 0.43 0.12 89 1015.5
20240622194518 83 44 0.0 1.0 0.12 0.43 0.12 87 1015.5
20240622194012 83 313 0.0 0.0 0.12 0.43 0.12 88 1015.7
20240622193000 82 313 0.0 1.0 0.12 0.43 0.12 86 1015.9
20240622192454 82 314 0.0 1.0 0.12 0.43 0.12 86 1016.0
20240622191954 81 43 0.0 1.0 0.12 0.43 0.12 86 1016.4
20240622191451 81 113 0.0 1.0 0.12 0.43 0.12 89 1016.6
20240622190950 81 60 0.0 1.0 0.12 0.43 0.12 90 1016.6
20240622190452 81 355 0.0 0.0 0.12 0.43 0.12 91 1016.7
20240622185950 81 355 0.0 2.0 0.12 0.43 0.12 90 1016.8
20240622185447 82 45 0.0 3.0 0.12 0.43 0.12 85 1016.7
20240622184946 85 54 0.0 3.0 0.05 0.36 0.07 79 1016.9
20240622184448 87 97 0.0 1.0 0.00 0.31 0.00 76 1016.6
20240622183947 87 90 0.0 4.0 0.00 0.31 0.00 73 1016.7
20240622182945 88 148 0.0 1.0 0.00 0.31 0.00 70 1016.9
20240622182444 88 193 0.0 2.0 0.00 0.31 0.00 70 1017.1
20240622181442 89 79 0.0 1.0 0.00 0.31 0.00 71 1017.3
20240622180943 89 135 0.0 1.0 0.00 0.31 0.00 67 1017.3
20240622180440 89 167 0.0 2.0 0.00 0.31 0.00 68 1017.3
20240622175939 90 98 0.0 2.0 0.00 0.31 0.00 68 1017.3
20240622175440 90 157 0.0 3.0 0.00 0.31 0.00 68 1017.5
20240622174939 90 80 0.0 3.0 0.00 0.31 0.00 68 1017.3
20240622174437 90 203 0.0 2.0 0.00 0.31 0.00 66 1017.5
20240622173438 89 64 0.0 2.0 0.00 0.31 0.00 67 1017.5
20240622172938 89 125 0.0 1.0 0.00 0.31 0.00 68 1017.5
20240622172438 88 105 0.0 2.0 0.00 0.31 0.00 69 1017.5
20240622171436 88 106 0.0 2.0 0.00 0.31 0.00 67 1017.7
20240622170438 88 149 0.0 1.0 0.00 0.31 0.00 71 1017.8
20240622165434 88 349 0.0 2.0 0.00 0.31 0.00 68 1018.0
20240622164933 88 141 0.0 1.0 0.00 0.31 0.00 71 1018.0
20240622164433 88 201 0.0 2.0 0.00 0.31 0.00 71 1018.0
20240622163932 88 146 0.0 2.0 0.00 0.31 0.00 74 1018.1
20240622163432 88 134 0.0 0.0 0.00 0.31 0.00 72 1018.2
20240622162934 87 304 0.0 1.0 0.00 0.31 0.00 74 1018.2
20240622162434 87 304 0.0 1.0 0.00 0.31 0.00 72 1018.4
20240622161933 87 139 0.0 1.0 0.00 0.31 0.00 72 1018.4
20240622161434 86 6 0.0 2.0 0.00 0.31 0.00 73 1018.5
20240622160932 85 118 0.0 2.0 0.00 0.31 0.00 75 1018.5
20240622160433 85 165 0.0 1.0 0.00 0.31 0.00 75 1018.5
20240622155932 85 293 0.0 2.0 0.00 0.31 0.00 75 1018.6
20240622155433 85 48 0.0 2.0 0.00 0.31 0.00 74 1018.7
20240622154932 86 6 0.0 2.0 0.00 0.31 0.00 75 1018.8
20240622153934 84 357 0.0 2.0 0.00 0.31 0.00 76 1018.7
20240622153433 84 139 0.0 1.0 0.00 0.31 0.00 78 1018.6
20240622152932 84 179 0.0 2.0 0.00 0.31 0.00 78 1018.7
20240622152430 84 141 0.0 2.0 0.00 0.31 0.00 79 1018.9
20240622151928 84 188 0.0 1.0 0.00 0.31 0.00 78 1018.9
20240622151426 83 50 0.0 1.0 0.00 0.31 0.00 78 1018.9
20240622150426 83 107 0.0 3.0 0.00 0.31 0.00 80 1018.9
20240622145922 82 127 0.0 2.0 0.00 0.31 0.00 81 1018.8
20240622144920 81 136 0.0 1.0 0.00 0.31 0.00 81 1018.8
20240622144413 81 143 0.0 2.0 0.00 0.31 0.00 82 1018.9
20240622143906 80 352 0.0 2.0 0.00 0.31 0.00 83 1018.9
20240622143402 80 85 0.0 1.0 0.00 0.31 0.00 85 1018.8
20240622142854 79 39 0.0 0.0 0.00 0.31 0.00 86 1019.0
20240622142349 79 121 0.0 0.0 0.00 0.31 0.00 88 1019.1
20240622141336 76 110 0.0 0.0 0.00 0.31 0.00 94 1019.1
20240622140831 76 82 0.0 0.0 0.00 0.31 0.00 95 1019.2
20240622140325 75 96 0.0 0.0 0.00 0.31 0.00 97 1019.3
20240622135819 75 140 0.0 0.0 0.00 0.31 0.00 97 1019.3
20240622135313 74 127 0.0 0.0 0.00 0.31 0.00 98 1019.5
20240622134806 74 68 0.0 0.0 0.00 0.31 0.00 97 1019.7
20240622134301 74 68 0.0 0.0 0.00 0.31 0.00 97 1019.7
20240622133755 74 116 0.0 0.0 0.00 0.31 0.00 98 1019.7
20240622133248 74 105 0.0 1.0 0.00 0.31 0.00 98 1019.7
20240622132742 74 105 0.0 1.0 0.00 0.31 0.00 98 1019.8
20240622132237 73 27 0.0 1.0 0.00 0.31 0.00 98 1019.7
20240622131732 73 108 0.0 0.0 0.00 0.31 0.00 98 1019.7
20240622131232 73 130 0.0 0.0 0.00 0.31 0.00 98 1019.8
20240622130731 73 111 0.0 0.0 0.00 0.31 0.00 98 1019.8
20240622130228 73 114 0.0 1.0 0.00 0.31 0.00 98 1019.8
20240622125727 73 70 0.0 1.0 0.00 0.31 0.00 98 1019.8
20240622125226 73 67 0.0 1.0 0.00 0.31 0.00 98 1019.8
20240622124225 73 141 0.0 1.0 0.00 0.31 0.00 99 1019.8
20240622123721 73 132 0.0 0.0 0.00 0.31 0.00 99 1019.9
20240622123220 72 116 0.0 0.0 0.00 0.31 0.00 99 1020.0
20240622122217 72 119 0.0 0.0 0.00 0.31 0.00 99 1019.8
20240622121713 72 119 0.0 0.0 0.00 0.31 0.00 99 1019.9
20240622120715 72 119 0.0 0.0 0.00 0.31 0.00 99 1019.7
20240622120213 71 119 0.0 0.0 0.00 0.31 0.00 99 1019.7
20240622115712 71 118 0.0 0.0 0.00 0.31 0.00 99 1019.7
20240622114712 71 118 0.0 0.0 0.00 0.31 0.00 99 1019.8
20240622114214 71 118 0.0 0.0 0.00 0.31 0.00 99 1020.0
20240622113707 71 118 0.0 0.0 0.00 0.31 0.00 99 1020.0
20240622113201 71 58 0.0 0.0 0.00 0.31 0.00 99 1020.1
20240622112654 71 58 0.0 0.0 0.00 0.31 0.00 99 1020.3
20240622111137 71 43 0.0 0.0 0.00 0.31 0.00 99 1020.1
20240622110632 71 43 0.0 0.0 0.00 0.31 0.00 99 1020.1
20240622105126 70 42 0.0 0.0 0.00 0.31 0.00 99 1020.1